(94032) = 2000 XC41

Discovered at Socorro on 2000-12-05 by LINEAR.

Orbit

Orbit type: Main Belt

Note: WebGL enabled browser required.

epoch2024-03-31.0
epoch JD2460400.5
perihelion date2025-11-02.66143
perihelion JD2460982.16143
argument of perihelion (°)167.77079
ascending node (°)31.51842
inclination (°)23.63296
eccentricity0.0803399
perihelion distance (AU)2.9552469
Tisserand w.r.t. Jupiter3.1
ΔV w.r.t. Earth (km/sec)13.0
semimajor axis (AU)3.2134122
mean anomaly (°)260.47677
mean daily motion (°/day)0.17110160
aphelion distance (AU)3.472
period (years)5.76
P-vector [x]-0.93457607
P-vector [y]-0.35074969
P-vector [z]-0.05951658
Q-vector [x]0.28748776
Q-vector [y]-0.64602983
Q-vector [z]-0.70710413
absolute magnitude13.63
phase slope0.15
uncertainty0
referenceMPEC 2024-C46
observations used1842
oppositions19
arc length (days)8909
first opposition used1999
last opposition used2024
residual rms (arc-secs)0.64
perturbers coarse indicatorM-v
perturbers precise indicator003Ek
first observation date used1999-09-14.0
last observation date used2024-02-04.0
computer nameMPCLINUX
JD of orbit computation2456937.295445
perihelion JD uncertainty (days)1.7626E-04
argument of perihelion uncertainty (°)3.4236E-05
ascending node uncertainty (°)1.1318E-05
inclination uncertainty (°)6.2729E-06
eccentricity uncertainty 7.4570E-08
perihelion distance uncertainty (AU)2.4389E-07
Minimum Orbit Intersection Distances (in AU)
for orbit epoch: 2460200.5, reference: E2024-C46
Mercury2.5288
Venus2.23945
Earth1.95847
Mars1.34834
Jupiter1.48695
Saturn5.78362
Uranus15.5711
Neptune26.3675

Observations

1870 total observations over interval: 1999 09 14.33206 – 2024 02 04.344439
These data are available for download (format description).

Date (UT) J2000 RA J2000 Dec Magn Location Ref
1999 09 14.33206 01 33 37.34 -02 25 16.6 19.1   704 – Lincoln Laboratory ETS, New Mexico MPS 27888
1999 09 14.34481 01 33 36.90 -02 25 17.8 19.0   704 – Lincoln Laboratory ETS, New Mexico MPS 27888
1999 09 14.35752 01 33 36.40 -02 25 18.6 19.0   704 – Lincoln Laboratory ETS, New Mexico MPS 27888
1999 09 14.37023 01 33 35.88 -02 25 17.9 18.8   704 – Lincoln Laboratory ETS, New Mexico MPS 27888
1999 10 08.25706 01 14 44.46 -02 47 50.4 18.9   704 – Lincoln Laboratory ETS, New Mexico MPS 27888
1999 10 08.27326 01 14 43.60 -02 47 50.6 18.9   704 – Lincoln Laboratory ETS, New Mexico MPS 27888
1999 10 08.28898 01 14 42.71 -02 47 50.8 18.9   704 – Lincoln Laboratory ETS, New Mexico MPS 27888
1999 10 08.30475 01 14 41.86 -02 47 51.7 19.2   704 – Lincoln Laboratory ETS, New Mexico MPS 27888
1999 10 08.32039 01 14 41.06 -02 47 51.9 19.5   704 – Lincoln Laboratory ETS, New Mexico MPS 27888
2000 10 25.43834 05 30 35.54 +42 16 33.1 19.0   704 – Lincoln Laboratory ETS, New Mexico MPS 25363
2000 10 25.45210 05 30 35.35 +42 16 39.9 19.4   704 – Lincoln Laboratory ETS, New Mexico MPS 25363
2000 10 25.48054 05 30 34.84 +42 16 54.7 19.1   704 – Lincoln Laboratory ETS, New Mexico MPS 25363
2000 10 25.49434 05 30 34.51 +42 17 01.1 19.4   704 – Lincoln Laboratory ETS, New Mexico MPS 25363
2000 11 06.34041 05 25 12.26 +43 55 38.9 19.1   704 – Lincoln Laboratory ETS, New Mexico MPS 24089
2000 11 06.35448 05 25 11.55 +43 55 45.1 19.3   704 – Lincoln Laboratory ETS, New Mexico MPS 24089
2000 11 06.36847 05 25 10.89 +43 55 52.8 18.9   704 – Lincoln Laboratory ETS, New Mexico MPS 24089
2000 11 06.38246 05 25 10.30 +43 56 00.0 19.1   704 – Lincoln Laboratory ETS, New Mexico MPS 24089
2000 11 06.39637 05 25 09.81 +43 56 06.0 18.6   704 – Lincoln Laboratory ETS, New Mexico MPS 24089
2000 12 05.25301 04 56 24.44 +46 47 10.4 18.4   704 – Lincoln Laboratory ETS, New Mexico MPS 23106
2000 12 05.26873 04 56 23.25 +46 47 13.5 18.7   704 – Lincoln Laboratory ETS, New Mexico MPS 23106
2000 12 05.28381 04 56 22.04 +46 47 16.9 18.2   704 – Lincoln Laboratory ETS, New Mexico MPS 23106
2000 12 05.30018 04 56 20.85 +46 47 20.3 18.8   704 – Lincoln Laboratory ETS, New Mexico MPS 23106
2000 12 05.31520 04 56 19.63 +46 47 22.3 18.4   704 – Lincoln Laboratory ETS, New Mexico MPS 23106
2000 12 07.29212 04 53 52.57 +46 53 11.6 18.3   704 – Lincoln Laboratory ETS, New Mexico MPS 23106
2000 12 07.30734 04 53 51.41 +46 53 13.4 18.7   704 – Lincoln Laboratory ETS, New Mexico MPS 23106
2000 12 07.32254 04 53 50.23 +46 53 16.3 18.6   704 – Lincoln Laboratory ETS, New Mexico MPS 23106
2000 12 07.33779 04 53 49.06 +46 53 18.3 18.4   704 – Lincoln Laboratory ETS, New Mexico MPS 23106
2000 12 07.35301 04 53 47.89 +46 53 21.1 18.6   704 – Lincoln Laboratory ETS, New Mexico MPS 23106
2000 12 17.25735 04 41 35.98 +47 09 06.6 18.7   704 – Lincoln Laboratory ETS, New Mexico MPS 24089
2000 12 17.27241 04 41 34.90 +47 09 06.5 18.0   704 – Lincoln Laboratory ETS, New Mexico MPS 24089
2000 12 17.28747 04 41 33.74 +47 09 07.2 18.3   704 – Lincoln Laboratory ETS, New Mexico MPS 24089
2000 12 17.30401 04 41 32.60 +47 09 08.1 18.3   704 – Lincoln Laboratory ETS, New Mexico MPS 24089
2001 02 15.08767 04 17 34.35 +44 27 53.1 19.4   704 – Lincoln Laboratory ETS, New Mexico MPS 26735
2001 02 15.10317 04 17 34.74 +44 27 50.1 19.6   704 – Lincoln Laboratory ETS, New Mexico MPS 26735
2001 02 15.11817 04 17 35.30 +44 27 46.3 19.5   704 – Lincoln Laboratory ETS, New Mexico MPS 26735
2001 02 15.14861 04 17 36.14 +44 27 40.7 19.6   704 – Lincoln Laboratory ETS, New Mexico MPS 26735
2001 12 21.44514 12 04 29.66 +25 20 14.0 19.0   704 – Lincoln Laboratory ETS, New Mexico MPS 43554
2001 12 21.46000 12 04 30.33 +25 20 14.3 19.4   704 – Lincoln Laboratory ETS, New Mexico MPS 43554
2001 12 21.47543 12 04 31.02 +25 20 15.6 18.9   704 – Lincoln Laboratory ETS, New Mexico MPS 43554
2001 12 21.49066 12 04 31.56 +25 20 16.7 19.4   704 – Lincoln Laboratory ETS, New Mexico MPS 43554
2001 12 21.50548 12 04 32.17 +25 20 17.0 19.2   704 – Lincoln Laboratory ETS, New Mexico MPS 43554
2002 01 08.44830 12 13 43.79 +25 51 47.7 18.8   704 – Lincoln Laboratory ETS, New Mexico MPS 49321
2002 01 08.46338 12 13 44.10 +25 51 50.7 19.1   704 – Lincoln Laboratory ETS, New Mexico MPS 49321
2002 01 08.47843 12 13 44.36 +25 51 53.4 19.7   704 – Lincoln Laboratory ETS, New Mexico MPS 49321
2002 01 08.50844 12 13 44.91 +25 51 58.8 19.1   704 – Lincoln Laboratory ETS, New Mexico MPS 49321
2002 01 19.42145 12 15 41.23 +26 30 22.7 18.0 R 699 – Lowell Observatory-LONEOS MPS 49321
2002 01 19.44872 12 15 41.27 +26 30 29.2   699 – Lowell Observatory-LONEOS MPS 49321
2002 01 19.47600 12 15 41.23 +26 30 36.1   699 – Lowell Observatory-LONEOS MPS 49321
2002 01 19.50335 12 15 41.26 +26 30 43.4   699 – Lowell Observatory-LONEOS MPS 49321
2002 02 06.39209 12 11 58.82 +27 53 05.5 17.6   704 – Lincoln Laboratory ETS, New Mexico MPS 49321
2002 02 06.40662 12 11 58.39 +27 53 09.8 18.2   704 – Lincoln Laboratory ETS, New Mexico MPS 49321
2002 02 06.42124 12 11 58.00 +27 53 14.9 17.7   704 – Lincoln Laboratory ETS, New Mexico MPS 49321
2002 02 06.43582 12 11 57.60 +27 53 19.1 18.0   704 – Lincoln Laboratory ETS, New Mexico MPS 49321
2002 02 06.45037 12 11 57.17 +27 53 23.3 17.8   704 – Lincoln Laboratory ETS, New Mexico MPS 49321
2002 02 21.31513 12 02 24.27 +28 59 32.3 17.5 R 699 – Lowell Observatory-LONEOS MPS 52299
2002 02 21.32003 12 02 23.92 +28 59 33.7 17.3   704 – Lincoln Laboratory ETS, New Mexico MPS 52299
2002 02 21.33153 12 02 23.47 +28 59 35.8   699 – Lowell Observatory-LONEOS MPS 52299
2002 02 21.33437 12 02 23.20 +28 59 37.4 17.9   704 – Lincoln Laboratory ETS, New Mexico MPS 52299
2002 02 21.34788 12 02 22.63 +28 59 40.0   699 – Lowell Observatory-LONEOS MPS 52299
2002 02 21.34866 12 02 22.49 +28 59 40.4 17.8   704 – Lincoln Laboratory ETS, New Mexico MPS 52299
2002 02 21.36303 12 02 21.78 +28 59 43.8 17.9   704 – Lincoln Laboratory ETS, New Mexico MPS 52299
2002 02 21.36424 12 02 21.79 +28 59 43.2   699 – Lowell Observatory-LONEOS MPS 52299
2002 02 21.37762 12 02 21.07 +28 59 47.7 18.2   704 – Lincoln Laboratory ETS, New Mexico MPS 52299
2002 03 05.31911 11 51 25.60 +29 33 07.9 17.9   704 – Lincoln Laboratory ETS, New Mexico MPS 52299
2002 03 05.33329 11 51 24.71 +29 33 09.4 18.3   704 – Lincoln Laboratory ETS, New Mexico MPS 52299
2002 03 05.34693 11 51 23.85 +29 33 10.6 18.2   704 – Lincoln Laboratory ETS, New Mexico MPS 52299
2002 03 05.36175 11 51 22.93 +29 33 12.2 18.1   704 – Lincoln Laboratory ETS, New Mexico MPS 52299
2002 03 05.37547 11 51 22.10 +29 33 13.6 18.0   704 – Lincoln Laboratory ETS, New Mexico MPS 52299
2002 03 19.41333 11 36 58.03 +29 33 25.2 17.7   644 – Palomar Mountain/NEAT MPS 52299
2002 03 19.42396 11 36 57.33 +29 33 24.4 17.5   644 – Palomar Mountain/NEAT MPS 52299
2002 03 19.43443 11 36 56.74 +29 33 23.1 17.5   644 – Palomar Mountain/NEAT MPS 52299
2002 03 21.24510 11 35 06.97 +29 29 49.4 17.4   704 – Lincoln Laboratory ETS, New Mexico MPS 52299
2002 03 21.25679 11 35 06.20 +29 29 47.9 18.6   704 – Lincoln Laboratory ETS, New Mexico MPS 52299
2002 03 21.27020 11 35 05.39 +29 29 46.2 18.6   704 – Lincoln Laboratory ETS, New Mexico MPS 52299
2002 03 21.28246 11 35 04.60 +29 29 44.7 18.5   704 – Lincoln Laboratory ETS, New Mexico MPS 52299
2002 03 21.29412 11 35 03.88 +29 29 42.9 18.1   704 – Lincoln Laboratory ETS, New Mexico MPS 52299
2002 03 30.42208 11 26 20.64 +28 58 54.4 18.0   644 – Palomar Mountain/NEAT MPS 54896
2002 03 30.42435 11 26 20.52 +28 58 53.8 18.0   644 – Palomar Mountain/NEAT MPS 54896
2002 03 30.43628 11 26 19.86 +28 58 50.4 17.9   644 – Palomar Mountain/NEAT MPS 54896
2002 03 30.43985 11 26 19.68 +28 58 49.5 17.9   644 – Palomar Mountain/NEAT MPS 54896
2002 03 30.45402 11 26 18.91 +28 58 45.7 18.0   644 – Palomar Mountain/NEAT MPS 54896
2002 03 30.45632 11 26 18.78 +28 58 44.7 17.9   644 – Palomar Mountain/NEAT MPS 54896
2002 04 04.28108 11 22 12.77 +28 34 16.2 18.2   704 – Lincoln Laboratory ETS, New Mexico MPS 54896
2002 04 04.29306 11 22 12.18 +28 34 12.1 18.3   704 – Lincoln Laboratory ETS, New Mexico MPS 54897
2002 04 04.30498 11 22 11.57 +28 34 08.3 18.1   704 – Lincoln Laboratory ETS, New Mexico MPS 54897
